sat.trackr.live / text

‹ back to catalog

STARLINK-33588

NORAD 62781 · 2025-015Z

PAYLOAD ACTIVE UNKNOWN

§ Identity

Operator
Country
US
Launch date
2025-01-21
Launch site
AFWTR
Launch vehicle
Mass (kg)
RCS (m²)

Purposes: comms

External: N2YO · Heavens-Above · Gunter

§ Orbital elements

Epoch: 2026-05-24T21:34:44.063040Z

Period
93.85 min
Inclination
53.1608°
Eccentricity
0.0000587
Mean motion
15.34399238 rev/d
Perigee alt
462.3 km
Apogee alt
463.1 km
Semi-major
6,840.8 km
B*
6.9245e-4
RAAN
325.9590°
Arg perigee
90.2389°
Mean anomaly
269.8681°
Rev number
7,618

§ Raw data

STARLINK-335881 62781U 25015Z   26144.89912110  .00023091  00000+0  69245-3 0  99982 62781  53.1608 325.9590 0000587  90.2389 269.8681 15.34399238 76182

JSON: /api/v1/satellites/62781 · /tle

For live sub-satellite position, see the globe view (requires WebGL).

§ Visibility from observer

Set your observer location to see the next 7 days of passes ≥ 10°. The values pass through the URL so the page stays shareable.

No JS? Fill the form by hand. The geolocation button needs JavaScript.